Location: La Brionne
(46.1728°N, 1.7849°E)
Time: 07:10:15
(UTC+00:00)

AO-109 - Visible Passes

Search period start: 01 April 2023 00:00
Search period end: 11 April 2023 00:00
Orbit: 442 x 482 km, 60.7° (Epoch: 31 March)

Date Brightness Start Highest point End Pass type
(mag) Time Alt. Az. Time Alt. Az. Time Alt. Az.
01 Apr ? 19:51:13 10° NW 19:54:40 56° NE 19:55:36 40° E visible
01 Apr ? 21:29:05 10° W 21:29:28 11° W 21:29:28 11° W visible
02 Apr ? 19:17:58 10° NNW 19:21:19 41° NE 19:23:37 17° ESE visible
02 Apr ? 20:55:19 10° WNW 20:57:29 20° WSW 20:57:29 20° WSW visible
03 Apr ? 20:21:39 10° WNW 20:24:42 28° SW 20:25:30 26° SSW visible
04 Apr ? 19:48:01 10° WNW 19:51:19 40° SW 19:53:31 18° S visible
05 Apr ? 19:14:24 10° NW 19:17:50 58° SW 19:21:16 10° SSE visible
07 Apr ? 19:45:31 10° W 19:46:56 12° WSW 19:48:21 10° SW visible
08 Apr ? 19:10:58 10° WNW 19:13:18 17° WSW 19:15:38 10° SSW visible
